TimeMDT,TemperatureF,Dew PointF,Humidity,Sea Level PressureIn,VisibilityMPH,Wind Direction,Wind SpeedMPH,Gust SpeedMPH,PrecipitationIn,Events,Conditions,WindDirDegrees,DateUTC
12:00 AM,23,20,81,30.03,,ENE,15.0,,,,,60,2012-10-17 06:00:00
12:00 AM,23.0,19.6,87,30.03,-9999.0,ENE,15.0,-,N/A,,Unknown,60,2012-10-17 06:00:00
1:00 AM,24.1,21.0,88,30.02,-9999.0,ENE,15.0,-,N/A,,Unknown,60,2012-10-17 07:00:00
2:00 AM,24.4,21.6,89,30.02,-9999.0,ENE,20.7,-,N/A,,Unknown,60,2012-10-17 08:00:00
3:00 AM,24.6,21.4,87,30.01,-9999.0,NE,17.3,-,N/A,,Unknown,50,2012-10-17 09:00:00
4:00 AM,25.0,20.8,84,29.99,-9999.0,ENE,21.9,-,N/A,,Unknown,60,2012-10-17 10:00:00
5:00 AM,24.4,21.2,87,29.99,-9999.0,NE,20.7,-,N/A,,Unknown,50,2012-10-17 11:00:00
6:00 AM,24,21,83,29.98,,NE,17.3,,,,,40,2012-10-17 12:00:00
6:00 AM,24.1,21.0,88,29.98,-9999.0,NE,17.3,-,N/A,,Unknown,40,2012-10-17 12:00:00
7:00 AM,24.1,20.7,87,29.96,-9999.0,NE,25.3,-,N/A,,Unknown,50,2012-10-17 13:00:00
8:00 AM,25.3,20.8,83,29.95,-9999.0,NE,25.3,-,N/A,,Unknown,50,2012-10-17 14:00:00
9:00 AM,25.0,21.4,86,29.94,-9999.0,NE,26.5,-,N/A,,Unknown,50,2012-10-17 15:00:00
10:00 AM,26.4,22.5,85,29.93,-9999.0,NE,23.0,-,N/A,,Unknown,50,2012-10-17 16:00:00
11:00 AM,27.1,23.9,88,29.94,-9999.0,ENE,26.5,-,N/A,,Unknown,60,2012-10-17 17:00:00
12:00 PM,28,24,79,29.93,,ENE,26.5,,,,,60,2012-10-17 18:00:00
12:00 PM,27.5,24.1,87,29.93,-9999.0,ENE,26.5,-,N/A,,Unknown,60,2012-10-17 18:00:00
1:00 PM,27.1,22.5,83,29.94,-9999.0,East,19.6,-,N/A,,Unknown,100,2012-10-17 19:00:00
2:00 PM,27.1,22.1,81,29.96,-9999.0,ESE,15.0,-,N/A,,Unknown,110,2012-10-17 20:00:00
3:00 PM,25.0,20.5,83,29.96,-9999.0,East,12.7,-,N/A,,Unknown,80,2012-10-17 21:00:00
4:00 PM,23.9,19.2,82,29.96,-9999.0,ENE,13.8,-,N/A,,Unknown,70,2012-10-17 22:00:00
5:00 PM,27.1,21.6,80,29.97,-9999.0,East,11.5,-,N/A,,Unknown,90,2012-10-17 23:00:00
6:00 PM,28,23,73,29.95,,East,10.4,,,,,80,2012-10-18 00:00:00
6:00 PM,27.7,22.8,82,29.95,-9999.0,East,10.4,18.4,N/A,,Unknown,80,2012-10-18 00:00:00
7:00 PM,29.5,26.8,90,29.95,-9999.0,ESE,19.6,28.8,N/A,,Unknown,110,2012-10-18 01:00:00
8:00 PM,28.8,26.6,92,29.95,-9999.0,ESE,23.0,29.9,N/A,,Unknown,120,2012-10-18 02:00:00
9:00 PM,27.1,25.9,95,29.95,-9999.0,ESE,16.1,24.2,N/A,,Unknown,110,2012-10-18 03:00:00
10:00 PM,26.6,25.5,96,29.96,-9999.0,East,12.7,-,N/A,,Unknown,80,2012-10-18 04:00:00
11:00 PM,27.5,26.2,95,29.95,-9999.0,East,13.8,-,N/A,,Unknown,90,2012-10-18 05:00:00